{"data":{"norad_id":66522,"epoch":"2026-05-25T05:06:44.243712Z","epoch_age_seconds":49790,"freshness":"FRESH","line1":"1 66522U 25265G   26145.21301208  .00013517  00000+0  49956-3 0  9998","line2":"2 66522  43.0003 206.0350 0000949 276.0339  84.0404 15.27596429 28810","mean_motion":15.27596429,"eccentricity":9.49e-5,"inclination_deg":43.0003,"raan_deg":206.035,"arg_perigee_deg":276.0339,"mean_anomaly_deg":84.0404,"bstar":0.00049956,"rev_number":2881,"period_min":94.265734893257,"perigee_km":482.34878025223,"apogee_km":483.65102403626,"semimajor_km":6861.1369021442,"source":"CELESTRAK","updated_at":"2026-05-25T13:38:21.250094Z"}}